Погода в Прудах

Россия / Республика Крым     45°14′08″N   34°42′00″E
темп.,
°C
ветер,
м/с
пор.,
м/с
влажн.,
%
обл.,
%
осадки,
мм/ч
давл.,
гПа
погр.,
м
26 июня, вс
вс2600:00+16ссз2293100 2.6 101144
03:00+16зюз229199 4.2 101135
06:00+17зюз118779 0.7 101120
09:00+23св4561100 0.8 10121149
12:00+25св6655100 0.8 10121539
15:00+23всв5658100 1.1 10131164
18:00+20вюв3475100 0.1 1013316
21:00+18ююз1188100 0.7 101428
27 июня, пн
пн2700:00+17з3595100 2.5 1013213
03:00+19ссв51099100 12.9 1011544
06:00+19св71196100 6.8 1011623
09:00+19в5994100 11.1 1011404
12:00+23всв576883 0.1 10131159
15:00+21всв8983100 0.7 1013910
18:00+20всв488957 0.6 1013596
21:00+19всв489283 1.4 1014393
28 июня, вт
вт2800:00+18св259398 0.3 1014104
03:00+19ссз2692100 0.3 1013211
06:00+19в3891100 0.5 1013280
09:00+18в3896100 6.7 1014523
12:00+22св61072100 0.4 10141138
15:00+23всв7106799 0.4 1014947
18:00+22всв6978100 0.0 1014799
21:00+18св3386100 0.0 101450
29 июня, ср
ср2900:00+18ссв228794 0.0 101521
03:00+17ссв119182 0.0 101411
06:00+18св118932 0.0 101419
09:00+24всв6958100 0.0 1014894
12:00+26всв684971 0.0 10141090
15:00+26всв7949100 0.0 1014926
18:00+25всв4757100 0.0 1014581
21:00+21в118294 0.0 101411
30 июня, чт
чт3000:00+20сз1186100 0.0 101411
03:00+20всв228790 0.0 101444
06:00+20св378553 0.0 1015167
09:00+25всв68575 0.0 1015692
12:00+26св79465 0.0 10151092
15:00+26всв79420 0.0 10161072
18:00+24всв68420 0.0 1016850
21:00+19в12650 0.0 101611